LIMC

Milan/Malpensa Airport

Airport
ICAO code
LIMC
IATA Code
MXP
Summary
ICAO Region
EUR
ICAO Territory
Location

Milan, Lombardy

Serving
Milan
Elevation
768 ft
Coordinates
45° 37' 46" N , 8° 43' 43" E
KCC
Metar
Observation
LIMC 042220Z 09018KT CAVOK 09/03 Q1028 NOSIG
Station
Milano / Malpensa
Date/Time
2023-02-04 22:20:00
Wind direction
90°
Wind speed
18 kts
Lowest cloud amount
clouds and visibility OK
Temperature
9°C
Dew point
3°C
Humidity
66%
QNH
1028 hPa
Weather condition
n/a

Milano Malpensa Airport "City of Milan", former "Aeroporto Città di Busto Arsizio" is Milan's largest airport. It is located 39.97 km northwest of central Milan, Italy. It is one of 3 airports in the Milan metropolitan area.

Climatology

Humid “subtropical” climate (Köppen climate classification Cfa) - characterized by hot, humid summers and cool winters. Significant amounts of precipitation occur in all seasons in most areas. Winter rainfall (and sometimes snowfall) is associated with large storms that the westerlies steer from west to east. Most summer rainfall occurs during thunderstorms.

Runways

Designator Length Width Surface Rops
17L/35R 3920 60 ASP Yes/Yes
17R/35L 3920 60 ASP Yes/Yes

Airport map

Aerial View

SKYbrary Partners:

Safety knowledge contributed by: